Location: Newark
(34.0131°N, 4.3314°W)
Time: 10:51:16
(UTC+00:00)

Courier 1B - Pass Details

Date: 30 October 2019
Orbit: 963 x 1209 km, 28.3° (Epoch: 12 November)

Event Time Altitude Azimuth Distance (km) Brightness Sun altitude
Rises 18:18:35 0° 270° (W) 4,018 12.7 -11.3°
Reaches altitude 10° 18:21:33 10° 263° (W) 3,084 11.7 -11.9°
Maximum altitude 18:28:35 39° 198° (SSW) 1,710 9.0 -13.3°
Drops below altitude 10° 18:35:45 10° 132° (SE) 3,137 9.8 -14.8°
Enters shadow 18:36:55 - 129° (SE) 3,498 10.0 -15.0°
